Weather History for Corning, AR

Change the Weather History Date:

Monday, September 16, 2013

  Actual Average (KARG) Record (KARG)
Temperature  
Mean Temperature 68 °F -  
Max Temperature 73 °F 79 °F 91 °F (1997)
Min Temperature 62 °F 58 °F 50 °F (2000)
Cooling Degree Days 2    
Growing Degree Days 18 (Base 50)    
Moisture  
Dew Point 63 °F    
Average Humidity 87    
Maximum Humidity 100    
Minimum Humidity 73    
Precipitation  
Precipitation 0.05 in - - ()
Sea Level Pressure  
Sea Level Pressure 30.16 in    
Wind  
Wind Speed 6 mph (NNE)    
Max Wind Speed 14 mph    
Max Gust Speed -    
Visibility 9 miles    
Events Rain    
Averages and records for this station are not official NWS values.
T = Trace of Precipitation, MM = Missing Value Source: NWS Daily Summary

Daily Weather History Graph

Daily Weather History Graph

Search for Another Location

Airport:

Trip Planner

Search our weather history database for the weather conditions in past years. The results will help you decide how hot, cold, wet, or windy it might be!

Date:

Astronomy

Sep. 16, 2013 Rise Set
Actual Time 6:45 AM CDT 7:08 PM CDT
Civil Twilight 6:20 AM CDT 7:33 PM CDT
Nautical Twilight 5:49 AM CDT 8:04 PM CDT
Astronomical Twilight 5:18 AM CDT 8:34 PM CDT
Moon 5:14 PM CDT (9/16) 3:36 AM CDT (9/16)
Length of Visible Light 13h 13m
Length of Day
12h 22m
Waxing Gibbous, 90% of the Moon is Illuminated
Sep 16
Waxing Gibbous
Sep 19
Full
Sep 26
Last Quarter
Oct 4
New
Oct 11
First Quarter

Hourly Weather History & Observations

Time (CDT) Temp. Dew Point Humidity Pressure Visibility Wind Dir Wind Speed Gust Speed Precip Events Conditions
12:15 AM 66.2 °F 59.0 °F 78% 30.08 in 10.0 mi Calm Calm - N/A   Clear
12:35 AM 64.4 °F 60.8 °F 88% 30.09 in 10.0 mi NNW 3.5 mph - N/A   Clear
12:55 AM 64.4 °F 60.8 °F 88% 30.10 in 10.0 mi North 5.8 mph - N/A   Clear
1:15 AM 64.4 °F 59.0 °F 83% 30.10 in 10.0 mi North 3.5 mph - N/A   Clear
1:35 AM 64.4 °F 59.0 °F 83% 30.10 in 10.0 mi NE 5.8 mph - N/A   Clear
1:55 AM 62.6 °F 60.8 °F 94% 30.10 in 10.0 mi NE 5.8 mph - N/A   Clear
2:15 AM 64.4 °F 59.0 °F 83% 30.10 in 10.0 mi NE 4.6 mph - N/A   Clear
2:35 AM 64.4 °F 59.0 °F 83% 30.10 in 10.0 mi ENE 4.6 mph - N/A   Clear
2:55 AM 62.6 °F 59.0 °F 88% 30.10 in 10.0 mi ESE 4.6 mph - N/A   Clear
3:15 AM 62.6 °F 59.0 °F 88% 30.10 in 10.0 mi SE 4.6 mph - N/A   Clear
3:35 AM 62.6 °F 59.0 °F 88% 30.10 in 10.0 mi Calm Calm - N/A   Clear
3:55 AM 62.6 °F 59.0 °F 88% 30.11 in 10.0 mi Calm Calm - N/A   Clear
4:15 AM 62.6 °F 59.0 °F 88% 30.12 in 10.0 mi NNE 5.8 mph - N/A   Clear
4:35 AM 62.6 °F 59.0 °F 88% 30.12 in 9.0 mi ENE 5.8 mph - N/A   Clear
4:55 AM 62.6 °F 59.0 °F 88% 30.13 in 10.0 mi NNE 3.5 mph - N/A   Clear
5:15 AM 64.4 °F 59.0 °F 83% 30.13 in 10.0 mi NNE 3.5 mph - N/A   Clear
5:35 AM 62.6 °F 59.0 °F 88% 30.13 in 10.0 mi North 3.5 mph - N/A   Scattered Clouds
5:55 AM 62.6 °F 59.0 °F 88% 30.14 in 10.0 mi NNE 3.5 mph - N/A   Mostly Cloudy
6:15 AM 64.4 °F 59.0 °F 83% 30.16 in 10.0 mi North 10.4 mph - N/A   Mostly Cloudy
6:35 AM 64.4 °F 59.0 °F 83% 30.17 in 10.0 mi North 5.8 mph - N/A   Scattered Clouds
6:55 AM 64.4 °F 59.0 °F 83% 30.16 in 9.0 mi NE 6.9 mph - N/A   Clear
7:15 AM 64.4 °F 60.8 °F 88% 30.16 in 10.0 mi ENE 8.1 mph - N/A   Clear
7:35 AM 66.2 °F 62.6 °F 88% 30.16 in 10.0 mi NE 8.1 mph - N/A   Clear
7:55 AM 66.2 °F 62.6 °F 88% 30.16 in 10.0 mi ENE 6.9 mph - N/A   Clear
8:15 AM 69.8 °F 64.4 °F 83% 30.17 in 9.0 mi ENE 8.1 mph - N/A   Clear
8:35 AM 68.0 °F 64.4 °F 88% 30.18 in 10.0 mi NE 8.1 mph - N/A   Clear
8:55 AM 69.8 °F 64.4 °F 83% 30.18 in 10.0 mi NNE 9.2 mph - N/A   Clear
9:15 AM 71.6 °F 64.4 °F 78% 30.19 in 10.0 mi NNE 10.4 mph - N/A   Clear
9:35 AM 71.6 °F 64.4 °F 78% 30.19 in 10.0 mi NE 12.7 mph - N/A   Clear
9:55 AM 71.6 °F 64.4 °F 78% 30.19 in 9.0 mi NNE 6.9 mph - N/A   Clear
10:15 AM 73.4 °F 64.4 °F 73% 30.20 in 10.0 mi ENE 9.2 mph - N/A   Clear
10:35 AM 73.4 °F 66.2 °F 78% 30.20 in 10.0 mi ENE 5.8 mph - N/A   Clear
10:55 AM 71.6 °F 66.2 °F 83% 30.22 in 10.0 mi North 5.8 mph - N/A   Partly Cloudy
11:15 AM 71.6 °F 66.2 °F 83% 30.22 in 9.0 mi North 10.4 mph - N/A   Partly Cloudy
11:35 AM 71.6 °F 66.2 °F 83% 30.22 in 9.0 mi North 10.4 mph - N/A   Partly Cloudy
11:55 AM 71.6 °F 66.2 °F 83% 30.21 in 9.0 mi NNE 8.1 mph - N/A   Partly Cloudy
12:15 PM 71.6 °F 66.2 °F 83% 30.21 in 8.0 mi NNE 11.5 mph - N/A   Partly Cloudy
12:35 PM 68.0 °F 68.0 °F 100% 30.21 in 4.0 mi NE 8.1 mph - N/A Rain Light Rain
12:55 PM 69.8 °F 68.0 °F 94% 30.20 in 2.5 mi NE 11.5 mph - 0.05 in Rain Light Rain
1:15 PM 69.8 °F 68.0 °F 94% 30.20 in 8.0 mi NE 10.4 mph - N/A   Clear
1:35 PM 69.8 °F 68.0 °F 94% 30.20 in 9.0 mi NE 12.7 mph - N/A   Scattered Clouds
1:55 PM 69.8 °F 68.0 °F 94% 30.19 in 7.0 mi NE 11.5 mph - N/A   Mostly Cloudy
2:15 PM 69.8 °F 68.0 °F 94% 30.18 in 6.0 mi ENE 10.4 mph - N/A Rain Light Rain
2:35 PM 68.0 °F 68.0 °F 100% 30.18 in 8.0 mi NE 10.4 mph - N/A   Partly Cloudy
2:55 PM 69.8 °F 68.0 °F 94% 30.18 in 8.0 mi ENE 10.4 mph - N/A   Partly Cloudy
3:15 PM 71.6 °F 68.0 °F 88% 30.17 in 9.0 mi NE 11.5 mph - N/A   Scattered Clouds
3:35 PM 71.6 °F 66.2 °F 83% 30.18 in 9.0 mi NE 12.7 mph - N/A   Unknown
3:55 PM 71.6 °F 66.2 °F 83% 30.18 in 9.0 mi NE 13.8 mph - N/A   Unknown
4:15 PM 71.6 °F 66.2 °F 83% 30.17 in 10.0 mi ENE 10.4 mph - N/A   Unknown
4:35 PM 71.6 °F 66.2 °F 83% 30.17 in 10.0 mi NNE 6.9 mph - N/A   Overcast
4:55 PM 71.6 °F 66.2 °F 83% 30.17 in 10.0 mi NNE 9.2 mph - N/A   Mostly Cloudy
5:15 PM 71.6 °F 64.4 °F 78% 30.17 in 10.0 mi NNE 9.2 mph - N/A   Mostly Cloudy
5:35 PM 69.8 °F 64.4 °F 83% 30.17 in 10.0 mi NE 10.4 mph - N/A   Overcast
5:55 PM 69.8 °F 64.4 °F 83% 30.16 in 10.0 mi NE 9.2 mph - N/A   Overcast
6:15 PM 69.8 °F 64.4 °F 83% 30.16 in 10.0 mi NE 9.2 mph - N/A   Mostly Cloudy
6:35 PM 68.0 °F 64.4 °F 88% 30.16 in 10.0 mi NNE 10.4 mph - N/A   Partly Cloudy
6:55 PM 68.0 °F 64.4 °F 88% 30.16 in 10.0 mi NNE 10.4 mph - N/A   Mostly Cloudy
7:15 PM 68.0 °F 64.4 °F 88% 30.17 in 10.0 mi NNE 6.9 mph - N/A   Mostly Cloudy
7:35 PM 68.0 °F 64.4 °F 88% 30.18 in 10.0 mi NNE 4.6 mph - N/A   Overcast
7:55 PM 66.2 °F 64.4 °F 94% 30.18 in 10.0 mi NNE 5.8 mph - N/A   Mostly Cloudy
8:15 PM 66.2 °F 64.4 °F 94% 30.18 in 10.0 mi NNE 5.8 mph - N/A   Mostly Cloudy
8:35 PM 66.2 °F 64.4 °F 94% 30.18 in 10.0 mi North 6.9 mph - N/A   Clear
8:55 PM 66.2 °F 64.4 °F 94% 30.18 in 10.0 mi North 6.9 mph - N/A   Clear
9:15 PM 66.2 °F 64.4 °F 94% 30.19 in 10.0 mi North 5.8 mph - N/A   Clear
9:35 PM 66.2 °F 64.4 °F 94% 30.19 in 10.0 mi North 6.9 mph - N/A   Clear
9:55 PM 66.2 °F 64.4 °F 94% 30.19 in 10.0 mi North 6.9 mph - N/A   Clear
10:15 PM 66.2 °F 64.4 °F 94% 30.19 in 10.0 mi North 5.8 mph - N/A   Clear
10:35 PM 64.4 °F 64.4 °F 100% 30.20 in 9.0 mi North 5.8 mph - N/A   Clear
10:55 PM 64.4 °F 62.6 °F 94% 30.20 in 10.0 mi North 4.6 mph - N/A   Clear
11:15 PM 64.4 °F 62.6 °F 94% 30.19 in 8.0 mi North 6.9 mph - N/A   Clear
11:35 PM 64.4 °F 62.6 °F 94% 30.19 in 8.0 mi North 8.1 mph - N/A   Clear
11:55 PM 64.4 °F 62.6 °F 94% 30.19 in 8.0 mi North 6.9 mph - N/A   Clear